This is the latest recevied weather packets stored in our database for station/object DB0MW-13. If no packets are shown the sender has not sent any weather packets the latest 1 day(s).
| Time | Temp. | Humidity | Pressure | Rain* | Wind** | Luminosity | Snow |
|---|---|---|---|---|---|---|---|
| 1778079601 | 17.78° C | 68% | 1006.8 hPa | 0 mm | - | - | - |
| 1778079301 | 17.78° C | 66% | 1006.6 hPa | 0 mm | - | - | - |
| 1778079001 | 17.78° C | 64% | 1006.5 hPa | 0 mm | - | - | - |
| 1778078701 | 18.33° C | 63% | 1006.6 hPa | 0 mm | - | - | - |
| 1778078401 | 18.33° C | 61% | 1006.5 hPa | 0 mm | - | - | - |
| 1778078101 | 18.33° C | 60% | 1006.5 hPa | 0 mm | - | - | - |
| 1778077801 | 18.33° C | 60% | 1006.5 hPa | 0 mm | - | - | - |
| 1778075700 | 18.33° C | 57% | 1006.3 hPa | 0 mm | - | - | - |
| 1778073300 | 18.33° C | 59% | 1006.5 hPa | 0 mm | - | - | - |
| 1778073001 | 18.33° C | 59% | 1006.4 hPa | 0 mm | - | - | - |
| 1778072701 | 18.33° C | 59% | 1006.2 hPa | 0 mm | - | - | - |
| 1778072101 | 17.78° C | 60% | 1006.5 hPa | 0 mm | - | - | - |
| 1778071501 | 17.78° C | 61% | 1006.5 hPa | 0 mm | - | - | - |
| 1778070901 | 17.78° C | 62% | 1006.6 hPa | 0 mm | - | - | - |
| 1778070601 | 17.78° C | 62% | 1006.4 hPa | 0 mm | - | - | - |
| 1778070301 | 17.78° C | 62% | 1006.3 hPa | 0 mm | - | - | - |
| 1778070001 | 17.78° C | 62% | 1006.5 hPa | 0 mm | - | - | - |
| 1778067000 | 18.33° C | 55% | 1006.6 hPa | 0 mm | - | - | - |
| 1778065501 | 17.22° C | 65% | 1006.7 hPa | 0 mm | - | - | - |
| 1778065201 | 17.22° C | 65% | 1006.9 hPa | 0 mm | - | - | - |
| 1778064901 | 17.22° C | 66% | 1006.8 hPa | 0 mm | - | - | - |
| 1778064601 | 17.22° C | 64% | 1006.6 hPa | 0 mm | - | - | - |
| 1778064301 | 17.22° C | 62% | 1006.5 hPa | 0 mm | - | - | - |
| 1778064001 | 17.22° C | 62% | 1006.8 hPa | 0 mm | - | - | - |
| 1778063401 | 17.78° C | 62% | 1007 hPa | 0 mm | - | - | - |
* Rain latest hour (hover to see other rain measurements)
** Current wind speed in m/s (hover to see current wind gust speed)